Regional Weather Roundup
Issued by NWS

Home | Current Version | Previous Version | Graphics & Text | Print | Product List | Glossary On
Versions: 1 2 3 4 5 6 7 8 9 10 11 12 13 14 15 16 17 18 19 20 21 22 23 24 25 26 27 28 29 30 31 32 33 34 35 36 37 38 39 40 41 42 43 44 45 46 47 48 49 50
000
ASUS43 KDMX 210201
RWRIA

WEATHER ROUNDUP FOR IOWA
NATIONAL WEATHER SERVICE DES MOINES IA
900 PM CDT SUN AUG 20 2017

NOTE: "FAIR" INDICATES FEW OR NO CLOUDS BELOW 12,000 FEET WITH NO
SIGNIFICANT WEATHER AND/OR OBSTRUCTIONS TO VISIBILITY.

* - THESE STATIONS ARE NOT NWS STATIONS...THUS NOT UNDER NWS
QUALITY CONTROL.  THEY ALSO DO NOT REPORT WEATHER SUCH
AS PRECIPITATION OR FOG.

IAZ001>003-012>014-020>022-031>034-043>046-210300-
   NORTHWEST IOWA

CITY           SKY/WX    TMP DP  RH WIND       PRES   REMARKS
CARROLL *      CLOUDY    75  73  94 CALM      29.98S
CHEROKEE *     PTCLDY    76  71  84 E3        29.98R
DENISON *      CLEAR     72  68  88 CALM      30.00R
LE MARS *      CLOUDY   102 N/A N/A CALM      29.97R
ORANGE CITY *  CLEAR     79  73  83 CALM      29.99R HX  82
SHELDON *      CLEAR     73  72  94 NE9       29.98R
SIOUX CITY     MOCLDY    76  69  79 SE7       29.95S
SPENCER        PTCLDY    75  71  87 NE7       30.00R
STORM LAKE *   MOCLDY    73  68  83 CALM      30.00R
$$

IAZ055>058-069>071-079>083-090>094-210300-
   SOUTHWEST IOWA

CITY           SKY/WX    TMP DP  RH WIND       PRES   REMARKS
ATLANTIC *     CLOUDY    72  70  94 CALM      29.99R
AUDUBON *      CLEAR     73  70  88 CALM      30.01R
CLARINDA *       N/A     70  68  94 CALM      29.99R
COUNCIL BLFS * CLEAR     73  72  94 E6        29.96R
CRESTON *      PTCLDY    68  66  94 NE6       30.03R
HARLAN  *      PTCLDY    72  70  94 E3        30.01S
LAMONI         CLEAR     69  65  86 E3        30.01R
RED OAK *      CLEAR     72  68  88 NE6       29.97R
SHENANDOAH *   CLEAR     73  70  88 NE5       29.96R
$$

IAZ047>049-059>061-072>074-084-210300-
   CENTRAL IOWA

CITY           SKY/WX    TMP DP  RH WIND       PRES   REMARKS
AMES           CLEAR     72  71  97 CALM      29.99R
ANKENY *       MOCLDY    72  70  94 S3        30.00R
BOONE *        CLEAR     73  70  88 SW3       29.99R
CHARITON *     PTCLDY    70  66  88 CALM      30.01R
DES MOINES     MOCLDY    74  67  78 S5        29.99R
GRINNELL*      MOCLDY    70  67  90 CALM      30.01R
KNOXVILLE *    CLOUDY    73  66  78 S6        30.00R
MARSHALLTOWN   CLEAR     70  68  93 E3        29.98R
NEWTON *       PTCLDY    72  68  88 CALM      30.00R
PELLA *        CLEAR     73  67  83 CALM      30.01R
PERRY *          N/A     71  70  96 CALM      29.99R
$$

IAZ004>006-015-016-023>025-035-036-210300-
   NORTH CENTRAL IOWA

CITY           SKY/WX    TMP DP  RH WIND       PRES   REMARKS
ALGONA *       MOCLDY    77  72  83 E5        30.00R
CLARION *      CLEAR     72  72 100 E3        30.00R
ESTHERVILLE    CLOUDY    74  72  93 N6        30.00R
FORT DODGE *   CLEAR     73  66  78 E3        29.99S
MASON CITY     CLEAR     71  67  87 S3        30.01R
FOREST CITY *    N/A     72  70  94 CALM      30.00R
WEBSTER CITY * CLEAR     73  70  88 SE6       29.97R
IOWA FALLS *     N/A     72  69  89 E5        30.01R
$$

IAZ007>011-017>019-026>030-037>042-050>054-066-210300-
   NORTHEAST IOWA

CITY           SKY/WX    TMP DP  RH WIND       PRES   REMARKS
CEDAR RAPIDS   CLEAR     72  69  90 NE7       29.99R
CHARLES CITY * CLEAR     72  72 100 S6        30.01R
CLINTON *      PTCLDY    70  68  93 E6        30.01R
DECORAH *      CLEAR     72  66  83 S5        30.00S
DUBUQUE        CLEAR     69  66  90 NE3       30.02S
MONTICELLO *   CLEAR     68  66  94 CALM      30.00S
OELWEIN *      CLEAR     70  68  94 SE5       30.02R
WATERLOO       CLEAR     73  66  78 SE3       29.99R
$$

IAZ064-065-067-068-078-210300-
   EAST CENTRAL IOWA

CITY           SKY/WX    TMP DP  RH WIND       PRES   REMARKS
DAVENPORT      CLEAR     71  69  93 NE8       30.01R
IOWA CITY      CLEAR     76  70  82 NE5       29.99R
MUSCATINE *    CLEAR     75  70  83 CALM      29.98R
QUAD CITIES    CLEAR     72  68  87 E5        29.98R
$$

IAZ062-063-075>077-085>089-095>099-210300-
   SOUTHEAST IOWA

CITY           SKY/WX    TMP DP  RH WIND       PRES   REMARKS
BURLINGTON     PTCLDY    73  71  93 SW7       29.99R
FAIRFIELD *    CLEAR     72  66  83 SW6       30.00R
FORT MADISON * PTCLDY    73  70  88 SW6       30.01R
KEOKUK *       PTCLDY    73  68  83 MISG      30.00R
OSKALOOSA *      N/A     68  66  94 SW5       30.01R
OTTUMWA        PTCLDY    71  67  87 SW6       30.00R
WASHINGTON *   CLEAR     72  70  94 SW7       30.00R
$$

ABBREVIATIONS USED IN REMARKS
   TC - TEMPERATURES IN CELSIUS
  WCI - WIND CHILL INDEX
   HX - HEAT INDEX
  VSB - VISIBILITY
$$




USA.gov is the U.S. government's official web portal to all federal, state and local government web resources and services.